Location: Unspecified
(41.5516°N, 88.1098°W)
Time: 19:37:02
(UTC-05:00)

Okean 3 - Visible Passes

Search period start: 25 May 2016 00:00
Search period end: 04 June 2016 00:00
Orbit: 577 x 605 km, 82.5° (Epoch: 25 May)

Date Brightness Start Highest point End Pass type
(mag) Time Alt. Az. Time Alt. Az. Time Alt. Az.
25 May 7.0 04:35:06 10° NE 04:36:31 11° ENE 04:37:55 10° E visible
26 May 6.5 04:42:27 10° NNE 04:45:14 17° ENE 04:48:00 10° ESE visible
27 May 6.1 04:50:24 10° NNE 04:53:54 25° ENE 04:57:23 10° SE visible
31 May 6.7 03:48:59 10° NE 03:50:28 12° ENE 03:51:58 10° E visible
01 Jun 6.4 03:56:22 10° NNE 03:59:11 17° ENE 04:01:59 10° ESE visible
02 Jun 5.8 04:04:19 10° NNE 04:07:51 25° ENE 04:11:21 10° SE visible
03 Jun 5.0 04:12:31 10° N 04:16:27 37° ENE 04:20:24 10° SE visible
